Regional Weather Roundup
Issued by NWS

Home | Current Version | Previous Version | Graphics & Text | Print | Product List | Glossary On
Versions: 1 2 3 4 5 6 7 8 9 10 11 12 13 14 15 16 17 18 19 20 21 22 23 24 25 26 27 28 29 30 31 32 33 34 35 36 37 38 39 40 41 42 43 44 45 46 47 48 49 50
000
ASUS43 KTOP 170608
RWRKS

WEATHER ROUNDUP FOR KANSAS
NATIONAL WEATHER SERVICE GOODLAND KS
1200 AM CST SAT FEB 17 2018

NOTE:  "FAIR" INDICATES FEW OR NO CLOUDS BELOW 12,000 FEET WITH NO
SIGNIFICANT WEATHER AND/OR OBSTRUCTIONS TO VISIBILITY.

KSZ001>006-013>018-027>032-041>047-170700-
NORTHWEST KANSAS

CITY           SKY/WX    TMP DP  RH WIND       PRES   REMARKS
GOODLAND       CLOUDY    29  19  66 S10       29.81F WCI  20
6HR MIN TEMP:  29; 6HR MAX TEMP:  35;

HAYS           CLOUDY    29  16  58 SE7       29.97F
HILL CITY      CLOUDY    29  17  61 SE6       29.93F
6HR MIN TEMP:  29; 6HR MAX TEMP:  36;

RUSSELL        PTCLDY    33  15  47 S16       29.98F WCI  23
6HR MIN TEMP:  32; 6HR MAX TEMP:  36;

$$

KSZ061>065-074>080-084>089-170700-
SOUTHWEST KANSAS

CITY           SKY/WX    TMP DP  RH WIND       PRES   REMARKS
DODGE CITY     CLOUDY    32  15  49 S21       29.94F WCI  20
6HR MIN TEMP:  31; 6HR MAX TEMP:  35;

ELKHART        MOCLDY    43  33  69 SW21      29.89F
GARDEN CITY    CLOUDY    33  16  49 S17G31    29.89F WCI  22
6HR MIN TEMP:  31; 6HR MAX TEMP:  36;

GREAT BEND     CLOUDY    32  14  47 S20       30.00F WCI  20
LIBERAL        CLOUDY    37  20  50 S17       29.94F WCI  27
PRATT          CLOUDY    33  14  45 S18       30.03F WCI  22
6HR MIN TEMP:  32; 6HR MAX TEMP:  36;

$$

KSZ066>073-081>083-090>101-170700-
SOUTHEAST KANSAS

CITY           SKY/WX    TMP DP  RH WIND       PRES   REMARKS
CHANUTE        CLOUDY    35  19  52 SE9       30.14F
6HR MIN TEMP:  34; 6HR MAX TEMP:  39;

COFFEYVILLE    CLOUDY    37  24  59 E3        30.15F
6HR MIN TEMP:  36; 6HR MAX TEMP:  40;

HUTCHINSON     PTCLDY    33  14  45 S12       30.06F WCI  24
6HR MIN TEMP:  31; 6HR MAX TEMP:  36;

MEDICINE LODGE   N/A     35  16  45 SE6       30.07F
NEWTON         CLOUDY    31  16  54 SE12      30.08F WCI  22
PARSONS        PTCLDY    37  23  56 CALM      30.16F
6HR MIN TEMP:  32; 6HR MAX TEMP:  40;

WICHITA INTL   CLOUDY    36  18  48 S13       30.10F WCI  27
6HR MIN TEMP:  35; 6HR MAX TEMP:  38;

WICHITA JABRA  PTCLDY    34  18  52 S13       30.09F WCI  25
6HR MIN TEMP:  33; 6HR MAX TEMP:  37;

WICHITA MCCONL CLOUDY    35  16  46 S7        30.10F
WINFIELD       CLOUDY    36  21  54 SE7       30.13F
6HR MIN TEMP:  35; 6HR MAX TEMP:  40;

$$

KSZ007>012-019>026-033>040-048>060-102>105-170700-
NORTHEAST KANSAS

CITY           SKY/WX    TMP DP  RH WIND       PRES   REMARKS
CONCORDIA      PTCLDY    24  12  60 SE6       30.05F
6HR MIN TEMP:  24; 6HR MAX TEMP:  31;

EMPORIA        CLOUDY    31  16  54 SE9       30.11F
6HR MIN TEMP:  30; 6HR MAX TEMP:  35;

LAWRENCE       CLOUDY    28  17  63 E6        30.14F
6HR MIN TEMP:  24; 6HR MAX TEMP:  31;

MANHATTAN      CLOUDY    27  13  55 CALM      30.10F
6HR MIN TEMP:  27; 6HR MAX TEMP:  36;

MARYSVILLE     CLOUDY    28  12  50 S6        30.09F
OLATHE IND     PTCLDY    30  11  45 SE8       30.14F
6HR MIN TEMP:  29; 6HR MAX TEMP:  34;

OLATHE EXE     MOCLDY    29   9  43 SE7       30.14F
6HR MIN TEMP:  29; 6HR MAX TEMP:  35;

SALINA         CLOUDY    33  14  45 SE9       30.06F
6HR MIN TEMP:  30; 6HR MAX TEMP:  37;

TOPEKA BILLARD CLOUDY    29  16  58 E6        30.13F
6HR MIN TEMP:  26; 6HR MAX TEMP:  34;

TOPEKA FORBES  CLOUDY    29  14  53 SE6       30.12F
6HR MIN TEMP:  28; 6HR MAX TEMP:  35;

$$




USA.gov is the U.S. government's official web portal to all federal, state and local government web resources and services.